Weather History for Hickory, NC

Change the Weather History Date:

Saturday, February 1, 2014

  Actual Average Record
Temperature  
Mean Temperature 42 °F -  
Max Temperature 57 °F 49 °F 71 °F (1950)
Min Temperature 27 °F 29 °F 10 °F (1971)
Degree Days  
Heating Degree Days 23    
Moisture  
Dew Point 25 °F    
Average Humidity 50    
Maximum Humidity 72    
Minimum Humidity 20    
Precipitation  
Precipitation 0.00 in - - ()
Sea Level Pressure  
Sea Level Pressure 30.13 in    
Wind  
Wind Speed 2 mph (SW)    
Max Wind Speed 8 mph    
Max Gust Speed -    
Visibility 10 miles    
Events      
Averages and records for this station are not official NWS values.
T = Trace of Precipitation, MM = Missing Value Source: NWS Daily Summary

Daily Weather History Graph

Daily Weather History Graph

Search for Another Location

Airport:

Trip Planner

Search our weather history database for the weather conditions in past years. The results will help you decide how hot, cold, wet, or windy it might be!

Date:

Astronomy

Feb. 01, 2014 Rise Set
Actual Time 7:25 AM EST 5:53 PM EST
Civil Twilight 6:58 AM EST 6:19 PM EST
Nautical Twilight 6:28 AM EST 6:50 PM EST
Astronomical Twilight 5:58 AM EST 7:20 PM EST
Moon 8:20 AM EST (2/1) 8:19 PM EST (2/1)
Length of Visible Light 11h 21m
Length of Day
10h 27m
Waxing Crescent, 5% of the Moon is Illuminated
Feb 1
Waxing Crescent
Feb 6
First Quarter
Feb 14
Full
Feb 22
Last Quarter
Mar 1
New

Hourly Weather History & Observations

Time (EST) Temp. Windchill Dew Point Humidity Pressure Visibility Wind Dir Wind Speed Gust Speed Precip Events Conditions
12:53 AM 32.0 °F - 19.0 °F 59% 30.15 in 10.0 mi Calm Calm - N/A   Clear
1:53 AM 28.9 °F - 19.0 °F 67% 30.16 in 10.0 mi Calm Calm - N/A   Clear
2:53 AM 28.9 °F - 18.0 °F 64% 30.14 in 10.0 mi Calm Calm - N/A   Clear
3:53 AM 30.0 °F - 19.0 °F 64% 30.15 in 10.0 mi Calm Calm - N/A   Clear
4:53 AM 28.0 °F 24.2 °F 19.0 °F 69% 30.16 in 10.0 mi NNW 3.5 mph - N/A   Clear
5:53 AM 28.9 °F - 19.0 °F 67% 30.16 in 10.0 mi Calm Calm - N/A   Clear
6:53 AM 27.0 °F - 19.0 °F 72% 30.18 in 10.0 mi Calm Calm - N/A   Clear
7:53 AM 27.0 °F - 19.0 °F 72% 30.19 in 10.0 mi Calm Calm - N/A   Clear
8:53 AM 32.0 °F 26.4 °F 21.9 °F 66% 30.21 in 10.0 mi NNW 5.8 mph - N/A   Clear
9:53 AM 39.0 °F 36.8 °F 21.9 °F 50% 30.20 in 10.0 mi NW 3.5 mph - N/A   Clear
10:53 AM 46.0 °F 44.8 °F 19.0 °F 34% 30.21 in 10.0 mi NNE 3.5 mph - N/A   Partly Cloudy
11:53 AM 48.9 °F - 19.0 °F 31% 30.17 in 10.0 mi Calm Calm - N/A   Overcast
12:53 PM 52.0 °F - 16.0 °F 24% 30.14 in 10.0 mi Calm Calm - N/A   Overcast
1:53 PM 55.0 °F - 16.0 °F 22% 30.10 in 10.0 mi Variable 3.5 mph - N/A   Overcast
2:53 PM 55.9 °F - 15.1 °F 20% 30.09 in 10.0 mi Calm Calm - N/A   Overcast
3:53 PM 57.0 °F - 16.0 °F 20% 30.08 in 10.0 mi Variable 3.5 mph - N/A   Overcast
4:53 PM 55.0 °F - 28.0 °F 35% 30.09 in 10.0 mi Variable 3.5 mph - N/A   Overcast
5:53 PM 55.0 °F - 26.1 °F 33% 30.09 in 10.0 mi SSW 4.6 mph - N/A   Overcast
6:53 PM 53.1 °F - 30.0 °F 41% 30.09 in 10.0 mi South 5.8 mph - N/A   Overcast
7:02 PM 53.6 °F - 30.2 °F 41% 30.11 in 10.0 mi South 6.9 mph - N/A   Overcast
7:53 PM 52.0 °F - 36.0 °F 54% 30.09 in 10.0 mi SSW 5.8 mph - N/A   Overcast
8:53 PM 51.1 °F - 36.0 °F 56% 30.09 in 10.0 mi SSW 4.6 mph - N/A   Overcast
9:38 PM 51.8 °F - 35.6 °F 54% 30.10 in 10.0 mi SW 3.5 mph - N/A   Overcast
9:53 PM 51.1 °F - 36.0 °F 56% 30.08 in 10.0 mi SSW 3.5 mph - N/A   Overcast
10:12 PM 50.0 °F - 35.6 °F 58% 30.09 in 10.0 mi Calm Calm - N/A   Overcast
10:31 PM 48.2 °F - 35.6 °F 62% 30.10 in 10.0 mi Calm Calm - N/A   Scattered Clouds
10:53 PM 48.0 °F - 36.0 °F 63% 30.07 in 10.0 mi Calm Calm - N/A   Clear
11:53 PM 48.0 °F - 32.0 °F 54% 30.05 in 10.0 mi SSW 8.1 mph - N/A   Clear